Tracking 27402 objects as of 3-Jun-2023
HD Live streaming from Space Station
objects crossing your sky now

SL-8 R/B

Track SL-8 R/B now!
10-day predictions


NORAD ID: 18403
Int'l Code: 1987-087B
Perigee: 941.2 km
Apogee: 1,024.7 km
Inclination: 82.9 °
Period: 104.6 minutes
Semi major axis: 7353 km
RCS: 4.8677 m2 (large)
Launch date: October 14, 1987
Source: Commonwealth of Independent States (former USSR) (CIS)
Launch site: PLESETSK MISSILE AND SPACE COMPLEX (PKMTR)

Note: This is a ROCKET BODY
Your satellite tracking list
Your tracking list is empty




NASA's NSSDC Master Catalog

Two Line Element Set (TLE):
1 18403U 87087B   23153.39372764  .00000094  00000-0  79826-4 0  9990
2 18403  82.9183 270.5292 0056788 217.2299 142.4916 13.76643607789444
Source of the keplerian elements: AFSPC